Tracking 28126 objects as of 1-Oct-2023
HD Live streaming from Space Station
objects crossing your sky now

FENGYUN 1C DEB

Track FENGYUN 1C DEB now!
10-day predictions


NORAD ID: 31887
Int'l Code: 1999-025CKN
Perigee: 744.0 km
Apogee: 788.0 km
Inclination: 99.5 °
Period: 100.0 minutes
Semi major axis: 7136 km
RCS: 0.0075 m2 (small)
Launch date: May 10, 1999
Source: People's Republic of China (PRC)
Launch site: Taiyaun Space Center, China (TSC)

Note: This is SATELLITE DEBRIS
Your satellite tracking list
Your tracking list is empty




NASA's NSSDC Master Catalog

Two Line Element Set (TLE):
1 31887U 99025CKN 23271.79719926  .00003255  00000-0  10462-2 0  9997
2 31887  99.5233 208.2784 0030843 204.7884 155.1820 14.39901229850085
Source of the keplerian elements: AFSPC